Weather History for Yankton, SD

Change the Weather History Date:

Monday, February 18, 2013

  Actual Average Record
Temperature  
Mean Temperature 24 °F -  
Max Temperature 39 °F 36 °F 75 °F (1981)
Min Temperature 10 °F 13 °F -16 °F (1978)
Degree Days  
Heating Degree Days 40    
Moisture  
Dew Point 18 °F    
Average Humidity 71    
Maximum Humidity 81    
Minimum Humidity 55    
Precipitation  
Precipitation 0.00 in - - ()
Sea Level Pressure  
Sea Level Pressure 29.84 in    
Wind  
Wind Speed 23 mph (NW)    
Max Wind Speed 38 mph    
Max Gust Speed 46 mph    
Visibility 10 miles    
Events      
Averages and records for this station are not official NWS values.
T = Trace of Precipitation, MM = Missing Value Source: NWS Daily Summary

Daily Weather History Graph

Daily Weather History Graph

Search for Another Location

Airport:

Trip Planner

Search our weather history database for the weather conditions in past years. The results will help you decide how hot, cold, wet, or windy it might be!

Date:

Astronomy

Feb. 18, 2013 Rise Set
Actual Time 7:22 AM CST 6:05 PM CST
Civil Twilight 6:53 AM CST 6:34 PM CST
Nautical Twilight 6:20 AM CST 7:07 PM CST
Astronomical Twilight 5:47 AM CST 7:40 PM CST
Moon 11:47 AM CST (2/18) 2:07 AM CST (2/18)
Length of Visible Light 11h 40m
Length of Day
10h 43m
First Quarter, 58% of the Moon is Illuminated
Feb 18
First Quarter
Feb 25
Full
Mar 4
Last Quarter
Mar 11
New
Mar 19
First Quarter

Hourly Weather History & Observations

Time (CST) Temp. Windchill Dew Point Humidity Pressure Visibility Wind Dir Wind Speed Gust Speed Precip Events Conditions
12:15 AM 39.2 °F 30.2 °F 32.0 °F 75% 29.60 in 10.0 mi WNW 17.3 mph - N/A   Clear
12:35 AM 37.4 °F 27.5 °F 32.0 °F 81% 29.61 in 10.0 mi WNW 18.4 mph - N/A   Clear
12:55 AM 37.4 °F 27.8 °F 32.0 °F 81% 29.61 in 10.0 mi WNW 17.3 mph 20.7 mph N/A   Clear
1:15 AM 37.4 °F 28.5 °F 30.2 °F 75% 29.61 in 10.0 mi WNW 15.0 mph - N/A   Clear
1:35 AM 37.4 °F 30.8 °F 32.0 °F 81% 29.63 in 10.0 mi WNW 9.2 mph - N/A   Clear
1:55 AM 37.4 °F 28.9 °F 30.2 °F 75% 29.63 in 10.0 mi West 13.8 mph - N/A   Clear
2:15 AM 37.4 °F 28.9 °F 32.0 °F 81% 29.63 in 10.0 mi West 13.8 mph - N/A   Clear
2:35 AM 37.4 °F 27.5 °F 30.2 °F 75% 29.64 in 10.0 mi WNW 18.4 mph - N/A   Partly Cloudy
2:55 AM 37.4 °F 27.2 °F 30.2 °F 75% 29.64 in 10.0 mi WNW 19.6 mph - N/A   Mostly Cloudy
3:15 AM 37.4 °F 27.8 °F 30.2 °F 75% 29.63 in 10.0 mi WNW 17.3 mph - N/A   Mostly Cloudy
3:55 AM 37.4 °F 28.5 °F 30.2 °F 75% 29.63 in 10.0 mi WNW 15.0 mph - N/A   Clear
4:15 AM 37.4 °F 27.8 °F 30.2 °F 75% 29.62 in 10.0 mi WNW 17.3 mph 25.3 mph N/A   Scattered Clouds
4:35 AM 37.4 °F 26.9 °F 30.2 °F 75% 29.61 in 10.0 mi WNW 20.7 mph 25.3 mph N/A   Mostly Cloudy
4:55 AM 37.4 °F 26.4 °F 30.2 °F 75% 29.61 in 10.0 mi WNW 23.0 mph 28.8 mph N/A   Partly Cloudy
5:15 AM 35.6 °F 23.4 °F 30.2 °F 81% 29.62 in 10.0 mi WNW 25.3 mph 32.2 mph N/A   Clear
5:35 AM 35.6 °F 23.4 °F 30.2 °F 81% 29.62 in 10.0 mi WNW 25.3 mph 33.4 mph N/A   Clear
5:55 AM 35.6 °F 23.7 °F 30.2 °F 81% 29.64 in 10.0 mi WNW 24.2 mph 29.9 mph N/A   Mostly Cloudy
6:15 AM 35.6 °F 24.2 °F 30.2 °F 81% 29.65 in 10.0 mi WNW 21.9 mph 28.8 mph N/A   Overcast
6:35 AM 35.6 °F 24.2 °F 30.2 °F 81% 29.66 in 10.0 mi WNW 21.9 mph 29.9 mph N/A   Overcast
6:55 AM 35.6 °F 22.7 °F 30.2 °F 81% 29.67 in 10.0 mi WNW 28.8 mph 36.8 mph N/A   Overcast
7:15 AM 33.8 °F 20.5 °F 28.4 °F 81% 29.68 in 10.0 mi NW 27.6 mph 39.1 mph N/A   Overcast
7:35 AM 33.8 °F 19.6 °F 26.6 °F 75% 29.69 in 10.0 mi NW 32.2 mph 41.4 mph N/A   Overcast
7:55 AM 33.8 °F 19.2 °F 23.0 °F 65% 29.70 in 10.0 mi NW 34.5 mph 43.7 mph N/A   Overcast
8:15 AM 32.0 °F 17.2 °F 24.8 °F 75% 29.72 in 10.0 mi NW 32.2 mph 43.7 mph N/A   Overcast
8:35 AM 30.2 °F 14.7 °F 23.0 °F 75% 29.74 in 10.0 mi NW 32.2 mph 41.4 mph N/A   Overcast
8:55 AM 30.2 °F 14.7 °F 21.2 °F 69% 29.75 in 10.0 mi NW 32.2 mph 44.9 mph N/A   Overcast
9:15 AM 28.4 °F 13.3 °F 19.4 °F 69% 29.77 in 10.0 mi NW 27.6 mph 42.6 mph N/A   Overcast
9:35 AM 28.4 °F 12.0 °F 19.4 °F 69% 29.78 in 10.0 mi NW 33.4 mph 46.0 mph N/A   Overcast
9:55 AM 26.6 °F 10.0 °F 19.4 °F 74% 29.80 in 10.0 mi NW 31.1 mph 38.0 mph N/A   Overcast
10:15 AM 26.6 °F 10.0 °F 17.6 °F 69% 29.81 in 10.0 mi NW 31.1 mph 39.1 mph N/A   Overcast
10:35 AM 26.6 °F 10.6 °F 17.6 °F 69% 29.82 in 10.0 mi NW 28.8 mph 40.3 mph N/A   Overcast
10:55 AM 24.8 °F 6.2 °F 17.6 °F 74% 29.83 in 10.0 mi NW 38.0 mph 42.6 mph N/A   Overcast
11:15 AM 24.8 °F 7.1 °F 15.8 °F 69% 29.84 in 10.0 mi NW 33.4 mph 39.1 mph N/A   Overcast
11:35 AM 26.6 °F 10.3 °F 14.0 °F 59% 29.85 in 10.0 mi NW 29.9 mph 42.6 mph N/A   Mostly Cloudy
11:55 AM 26.6 °F 10.3 °F 14.0 °F 59% 29.86 in 10.0 mi NW 29.9 mph 42.6 mph N/A   Overcast
12:15 PM 26.6 °F 9.1 °F 14.0 °F 59% 29.87 in 10.0 mi NW 35.7 mph 40.3 mph N/A   Overcast
12:35 PM 26.6 °F 9.8 °F 14.0 °F 59% 29.87 in 10.0 mi NW 32.2 mph 41.4 mph N/A   Overcast
12:55 PM 26.6 °F 9.8 °F 12.2 °F 55% 29.87 in 10.0 mi NW 32.2 mph 46.0 mph N/A   Overcast
1:15 PM 24.8 °F 6.8 °F 12.2 °F 59% 29.88 in 10.0 mi NW 34.5 mph 40.3 mph N/A   Mostly Cloudy
1:35 PM 24.8 °F 7.6 °F 12.2 °F 59% 29.89 in 10.0 mi WNW 31.1 mph 39.1 mph N/A   Mostly Cloudy
1:55 PM 24.8 °F 7.9 °F 14.0 °F 64% 29.89 in 10.0 mi NW 29.9 mph 39.1 mph N/A   Overcast
2:15 PM 26.6 °F 10.3 °F 14.0 °F 59% 29.90 in 10.0 mi NW 29.9 mph 40.3 mph N/A   Mostly Cloudy
2:35 PM 26.6 °F 10.6 °F 14.0 °F 59% 29.90 in 10.0 mi NW 28.8 mph 42.6 mph N/A   Mostly Cloudy
2:55 PM 24.8 °F 6.6 °F 14.0 °F 64% 29.91 in 10.0 mi WNW 35.7 mph 40.3 mph N/A   Overcast
3:15 PM 24.8 °F 7.3 °F 12.2 °F 59% 29.92 in 10.0 mi NW 32.2 mph 41.4 mph N/A   Overcast
3:35 PM 24.8 °F 8.4 °F 14.0 °F 64% 29.92 in 10.0 mi NW 27.6 mph 35.7 mph N/A   Mostly Cloudy
3:55 PM 24.8 °F 8.1 °F 15.8 °F 69% 29.93 in 10.0 mi NW 28.8 mph 34.5 mph N/A   Overcast
4:15 PM 23.0 °F 5.4 °F 12.2 °F 63% 29.94 in 10.0 mi NW 29.9 mph 35.7 mph N/A   Overcast
4:35 PM 21.2 °F 4.9 °F 12.2 °F 68% 29.96 in 10.0 mi NW 23.0 mph 33.4 mph N/A   Mostly Cloudy
4:55 PM 21.2 °F 3.9 °F 12.2 °F 68% 29.96 in 10.0 mi NW 26.5 mph 35.7 mph N/A   Overcast
5:15 PM 21.2 °F 3.3 °F 12.2 °F 68% 29.97 in 10.0 mi NW 28.8 mph 35.7 mph N/A   Mostly Cloudy
5:35 PM 21.2 °F 3.5 °F 10.4 °F 63% 29.98 in 10.0 mi NW 27.6 mph 38.0 mph N/A   Scattered Clouds
5:55 PM 19.4 °F 2.8 °F 10.4 °F 68% 29.99 in 10.0 mi NW 21.9 mph 33.4 mph N/A   Clear
6:15 PM 19.4 °F 1.8 °F 10.4 °F 68% 29.99 in 10.0 mi NW 25.3 mph 31.1 mph N/A   Scattered Clouds
6:35 PM 19.4 °F 2.8 °F 12.2 °F 74% 30.00 in 10.0 mi NW 21.9 mph 28.8 mph N/A   Overcast
6:55 PM 19.4 °F 3.2 °F 12.2 °F 74% 30.00 in 10.0 mi NW 20.7 mph 26.5 mph N/A   Overcast
7:15 PM 19.4 °F 2.1 °F 12.2 °F 74% 30.00 in 10.0 mi NW 24.2 mph 29.9 mph N/A   Overcast
7:35 PM 19.4 °F 2.5 °F 12.2 °F 74% 30.01 in 10.0 mi NW 23.0 mph 31.1 mph N/A   Overcast
7:55 PM 19.4 °F 4.1 °F 12.2 °F 74% 30.01 in 10.0 mi NW 18.4 mph 31.1 mph N/A   Scattered Clouds
8:15 PM 17.6 °F 1.7 °F 10.4 °F 73% 30.02 in 10.0 mi NW 18.4 mph 25.3 mph N/A   Mostly Cloudy
8:35 PM 15.8 °F -0.2 °F 10.4 °F 79% 30.03 in 10.0 mi NW 17.3 mph 26.5 mph N/A   Scattered Clouds
8:55 PM 14.0 °F -2.5 °F 8.6 °F 79% 30.04 in 10.0 mi NW 17.3 mph 25.3 mph N/A   Partly Cloudy
9:15 PM 14.0 °F -4.3 °F 8.6 °F 79% 30.05 in 10.0 mi NW 21.9 mph 28.8 mph N/A   Partly Cloudy
9:35 PM 12.2 °F -8.2 °F 6.8 °F 79% 30.06 in 10.0 mi NW 26.5 mph 31.1 mph N/A   Clear
9:55 PM 12.2 °F -8.2 °F 6.8 °F 79% 30.07 in 10.0 mi NW 26.5 mph 35.7 mph N/A   Scattered Clouds
10:15 PM 12.2 °F -7.1 °F 6.8 °F 79% 30.07 in 10.0 mi NW 23.0 mph 29.9 mph N/A   Mostly Cloudy
10:35 PM 12.2 °F -8.6 °F 3.2 °F 67% 30.08 in 10.0 mi NW 27.6 mph 35.7 mph N/A   Partly Cloudy
10:55 PM 10.4 °F -11.7 °F 5.0 °F 79% 30.09 in 10.0 mi NW 29.9 mph 38.0 mph N/A   Clear
11:15 PM 10.4 °F -11.4 °F 1.4 °F 67% 30.10 in 10.0 mi NW 28.8 mph 36.8 mph N/A   Clear
11:35 PM 10.4 °F -12.0 °F 1.4 °F 67% 30.10 in 10.0 mi NW 31.1 mph 36.8 mph N/A   Clear
11:55 PM 10.4 °F -11.0 °F 1.4 °F 67% 30.11 in 10.0 mi NW 27.6 mph 35.7 mph N/A   Clear